UAL1251 KIAD-KRSW

Flight info

Callsign UAL1251
Flight time N/A
Altitude 34000
Route CLTCH3 FLASK GOWBE BURGG CYNTA SHFTY6
Aircraft B739/M-SDE2E3FGHIRWXY/LB1

Departure

Time 2026-05-07 16:22
Airport Washington Dulles International Airport (KIAD)

Arrival

Time N/A
Airport Southwest Florida International Airport (KRSW)
Time Latitude Longitude Altitude Speed Heading
2026-05-07 16:00 38.94494 -77.45006 291 ft 0 kts 342°
2026-05-07 16:12 38.94490 -77.45004 291 ft 3 kts 342°
2026-05-07 16:12 38.94464 -77.44993 293 ft 4 kts 342°
2026-05-07 16:12 38.94439 -77.44982 292 ft 2 kts 341°
2026-05-07 16:13 38.94420 -77.44972 293 ft 4 kts 314°
2026-05-07 16:13 38.94412 -77.44948 295 ft 4 kts 270°
2026-05-07 16:13 38.94412 -77.44922 291 ft 0 kts 270°
2026-05-07 16:17 38.94412 -77.44923 291 ft 0 kts 269°
2026-05-07 16:18 38.94414 -77.44980 291 ft 14 kts 280°
2026-05-07 16:18 38.94430 -77.45158 295 ft 24 kts 275°
2026-05-07 16:18 38.94430 -77.45364 292 ft 23 kts 260°
2026-05-07 16:18 38.94420 -77.45542 293 ft 15 kts 275°
2026-05-07 16:19 38.94352 -77.45616 295 ft 15 kts 182°
2026-05-07 16:19 38.94248 -77.45612 293 ft 16 kts 178°
2026-05-07 16:19 38.94136 -77.45615 293 ft 16 kts 181°
2026-05-07 16:19 38.94016 -77.45617 293 ft 27 kts 180°
2026-05-07 16:20 38.93814 -77.45619 291 ft 29 kts 180°
2026-05-07 16:20 38.93653 -77.45537 293 ft 18 kts 134°
2026-05-07 16:20 38.93538 -77.45522 293 ft 17 kts 193°
2026-05-07 16:20 38.93427 -77.45576 292 ft 17 kts 202°
2026-05-07 16:21 38.93367 -77.45630 294 ft 4 kts 265°
2026-05-07 16:21 38.93379 -77.45687 296 ft 23 kts 290°
2026-05-07 16:21 38.93525 -77.46187 298 ft 95 kts 291°
2026-05-07 16:21 38.93844 -77.47221 301 ft 152 kts 291°
2026-05-07 16:22 38.94257 -77.48613 595 ft 172 kts 290°
2026-05-07 16:22 38.94403 -77.50211 1041 ft 196 kts 264°
2026-05-07 16:22 38.93939 -77.51910 1536 ft 208 kts 239°
2026-05-07 16:22 38.92814 -77.53105 2086 ft 219 kts 208°
2026-05-07 16:23 38.91414 -77.54035 2572 ft 231 kts 210°
2026-05-07 16:23 38.89930 -77.55011 2824 ft 258 kts 209°
2026-05-07 16:23 38.88266 -77.56106 3306 ft 276 kts 208°
2026-05-07 16:23 38.86560 -77.57216 4272 ft 273 kts 208°
2026-05-07 16:24 38.84871 -77.58315 5202 ft 272 kts 209°
2026-05-07 16:24 38.83179 -77.59420 6084 ft 273 kts 210°
2026-05-07 16:24 38.81493 -77.60525 6962 ft 272 kts 210°
2026-05-07 16:24 38.79811 -77.61630 7843 ft 271 kts 211°
2026-05-07 16:25 38.78134 -77.62732 8683 ft 271 kts 212°
2026-05-07 16:25 38.76458 -77.63841 9533 ft 272 kts 211°
2026-05-07 16:25 38.74783 -77.64949 10432 ft 272 kts 212°
2026-05-07 16:25 38.73055 -77.66080 10776 ft 289 kts 212°
2026-05-07 16:26 38.71200 -77.67299 10960 ft 310 kts 213°
2026-05-07 16:26 38.69243 -77.68601 11129 ft 331 kts 212°
2026-05-07 16:26 38.67132 -77.69992 11278 ft 351 kts 212°
2026-05-07 16:26 38.64910 -77.71459 11484 ft 366 kts 212°
2026-05-07 16:27 38.62620 -77.72950 11943 ft 371 kts 212°
2026-05-07 16:27 38.60312 -77.74452 12572 ft 371 kts 212°
2026-05-07 16:27 38.58011 -77.75954 13202 ft 371 kts 212°
2026-05-07 16:27 38.55703 -77.77465 13752 ft 374 kts 213°
2026-05-07 16:28 38.53397 -77.79004 14307 ft 373 kts 216°
2026-05-07 16:28 38.51407 -77.81040 14889 ft 364 kts 232°
2026-05-07 16:28 38.49773 -77.83482 15474 ft 363 kts 233°
2026-05-07 16:28 38.48093 -77.85898 16033 ft 364 kts 232°
2026-05-07 16:29 38.46391 -77.88291 16561 ft 365 kts 232°
2026-05-07 16:29 38.44692 -77.90686 17120 ft 363 kts 233°
2026-05-07 16:29 38.43135 -77.93206 17630 ft 361 kts 238°
2026-05-07 16:29 38.41685 -77.95826 18087 ft 362 kts 239°
2026-05-07 16:30 38.40265 -77.98475 18548 ft 362 kts 239°
2026-05-07 16:30 38.38839 -78.01130 18935 ft 364 kts 238°
2026-05-07 16:30 38.37397 -78.03791 19268 ft 367 kts 238°
2026-05-07 16:30 38.35930 -78.06465 19554 ft 369 kts 238°
2026-05-07 16:31 38.34446 -78.09154 19875 ft 372 kts 237°
2026-05-07 16:31 38.32954 -78.11844 20258 ft 372 kts 237°
2026-05-07 16:31 38.31454 -78.14542 20564 ft 374 kts 237°
2026-05-07 16:31 38.29942 -78.17256 20820 ft 376 kts 237°
2026-05-07 16:32 38.28441 -78.19950 21067 ft 379 kts 237°
2026-05-07 16:32 38.26913 -78.22690 21373 ft 380 kts 236°
2026-05-07 16:32 38.25383 -78.25430 21649 ft 381 kts 236°
2026-05-07 16:32 38.23843 -78.28186 21883 ft 383 kts 236°
2026-05-07 16:33 38.22295 -78.30955 22104 ft 385 kts 236°
2026-05-07 16:33 38.20740 -78.33734 22365 ft 385 kts 236°
2026-05-07 16:33 38.19185 -78.36510 22622 ft 386 kts 236°
2026-05-07 16:33 38.17626 -78.39290 22841 ft 387 kts 236°
2026-05-07 16:34 38.16027 -78.42055 23014 ft 389 kts 234°
2026-05-07 16:34 38.14387 -78.44805 23189 ft 391 kts 234°
2026-05-07 16:34 38.12738 -78.47542 23450 ft 390 kts 234°
2026-05-07 16:34 38.11082 -78.50285 23659 ft 391 kts 233°
2026-05-07 16:35 38.09427 -78.53028 23835 ft 392 kts 233°
2026-05-07 16:35 38.07770 -78.55785 24015 ft 393 kts 234°
2026-05-07 16:35 38.06107 -78.58552 24186 ft 394 kts 234°
2026-05-07 16:35 38.04448 -78.61312 24404 ft 394 kts 234°
2026-05-07 16:36 38.02785 -78.64081 24607 ft 393 kts 234°
2026-05-07 16:36 38.01123 -78.66847 24766 ft 395 kts 234°
2026-05-07 16:36 37.99461 -78.69610 24917 ft 395 kts 234°
2026-05-07 16:36 37.97787 -78.72393 24946 ft 399 kts 234°
2026-05-07 16:37 37.96095 -78.75201 24988 ft 402 kts 234°
2026-05-07 16:37 37.94416 -78.77988 25082 ft 404 kts 234°
2026-05-07 16:37 37.92710 -78.80815 25208 ft 404 kts 234°
2026-05-07 16:37 37.91008 -78.83629 25511 ft 401 kts 234°
2026-05-07 16:38 37.89311 -78.86435 25624 ft 402 kts 234°
2026-05-07 16:38 37.87610 -78.89248 25735 ft 403 kts 234°
2026-05-07 16:38 37.85904 -78.92066 25810 ft 404 kts 234°
2026-05-07 16:38 37.84189 -78.94898 25875 ft 405 kts 234°
2026-05-07 16:39 37.82476 -78.97719 26042 ft 403 kts 234°
2026-05-07 16:39 37.80773 -79.00523 26238 ft 402 kts 234°
2026-05-07 16:39 37.79075 -79.03318 26417 ft 400 kts 234°
2026-05-07 16:39 37.77386 -79.06097 26617 ft 398 kts 235°
2026-05-07 16:40 37.75700 -79.08872 26742 ft 397 kts 235°
2026-05-07 16:40 37.74015 -79.11626 26919 ft 395 kts 235°
2026-05-07 16:40 37.72342 -79.14376 27069 ft 394 kts 235°
2026-05-07 16:40 37.70667 -79.17121 27226 ft 394 kts 235°
2026-05-07 16:41 37.69012 -79.19865 27402 ft 391 kts 236°
2026-05-07 16:41 37.67397 -79.22622 27542 ft 390 kts 236°
2026-05-07 16:41 37.65779 -79.25363 27778 ft 387 kts 236°
2026-05-07 16:41 37.64161 -79.28061 28174 ft 384 kts 236°
2026-05-07 16:42 37.62549 -79.30752 28362 ft 384 kts 236°
2026-05-07 16:42 37.60946 -79.33438 28603 ft 383 kts 237°
2026-05-07 16:42 37.59351 -79.36123 28875 ft 381 kts 237°
2026-05-07 16:42 37.57766 -79.38788 29206 ft 377 kts 237°
2026-05-07 16:43 37.56214 -79.41398 29449 ft 376 kts 237°
2026-05-07 16:43 37.54630 -79.44060 29729 ft 374 kts 237°
2026-05-07 16:43 37.53087 -79.46642 30009 ft 373 kts 237°
2026-05-07 16:43 37.51515 -79.49278 30323 ft 371 kts 237°
2026-05-07 16:44 37.49993 -79.51831 30653 ft 368 kts 237°
2026-05-07 16:44 37.48456 -79.54405 30928 ft 367 kts 238°
2026-05-07 16:44 37.46951 -79.56986 31247 ft 365 kts 237°
2026-05-07 16:44 37.45424 -79.59535 31510 ft 364 kts 237°
2026-05-07 16:45 37.43895 -79.62072 31775 ft 363 kts 237°
2026-05-07 16:45 37.42367 -79.64607 32041 ft 363 kts 237°
2026-05-07 16:45 37.40847 -79.67127 32362 ft 360 kts 237°
2026-05-07 16:45 37.39340 -79.69626 32696 ft 358 kts 237°
2026-05-07 16:46 37.37844 -79.72116 33046 ft 355 kts 238°
2026-05-07 16:46 37.36362 -79.74582 33362 ft 352 kts 238°
2026-05-07 16:46 37.34884 -79.77040 33568 ft 353 kts 238°
2026-05-07 16:46 37.33403 -79.79501 33753 ft 352 kts 238°
2026-05-07 16:47 37.31927 -79.81953 33946 ft 351 kts 238°
2026-05-07 16:47 37.28980 -79.86841 33964 ft 351 kts 238°
2026-05-07 16:48 37.26052 -79.91691 33964 ft 350 kts 238°
2026-05-07 16:48 37.23107 -79.96565 33972 ft 351 kts 238°
2026-05-07 16:49 37.20148 -80.01450 33960 ft 352 kts 238°
2026-05-07 16:49 37.17183 -80.06342 34142 ft 352 kts 238°
2026-05-07 16:49 37.15704 -80.08767 34458 ft 349 kts 238°
2026-05-07 16:50 37.14711 -80.10399 34612 ft 348 kts 238°
2026-05-07 16:50 37.13263 -80.12783 34766 ft 349 kts 238°
2026-05-07 16:50 37.11792 -80.15208 34914 ft 350 kts 238°
2026-05-07 16:50 37.10318 -80.17634 35056 ft 350 kts 238°
2026-05-07 16:51 37.08838 -80.20064 35294 ft 349 kts 238°
2026-05-07 16:51 37.07364 -80.22483 35473 ft 349 kts 238°
2026-05-07 16:51 37.05887 -80.24905 35589 ft 350 kts 238°
2026-05-07 16:51 37.04412 -80.27324 35768 ft 349 kts 238°
2026-05-07 16:52 37.02941 -80.29728 35958 ft 347 kts 238°
2026-05-07 16:52 36.99527 -80.34111 35986 ft 359 kts 229°
2026-05-07 16:53 36.95685 -80.38117 35978 ft 359 kts 228°
2026-05-07 16:53 36.91847 -80.42120 35967 ft 359 kts 228°
2026-05-07 16:54 36.88022 -80.46129 35967 ft 358 kts 229°
2026-05-07 16:54 36.84231 -80.50111 35974 ft 359 kts 229°
2026-05-07 16:55 36.80405 -80.54128 35974 ft 360 kts 229°
2026-05-07 16:55 36.76565 -80.58153 35965 ft 361 kts 229°
2026-05-07 16:56 36.72717 -80.62183 35957 ft 361 kts 229°
2026-05-07 16:56 36.66940 -80.68223 35956 ft 362 kts 229°
2026-05-07 16:57 36.63079 -80.72254 35953 ft 362 kts 228°
2026-05-07 16:57 36.59176 -80.76225 35965 ft 363 kts 227°
2026-05-07 16:58 36.55338 -80.80221 35942 ft 362 kts 229°
2026-05-07 16:58 36.51507 -80.84263 35948 ft 362 kts 229°
2026-05-07 16:59 36.47652 -80.88294 35944 ft 362 kts 229°
2026-05-07 16:59 36.43777 -80.92311 35945 ft 363 kts 228°
2026-05-07 17:00 36.39914 -80.96325 35944 ft 362 kts 229°
2026-05-07 17:00 36.36041 -81.00331 35946 ft 363 kts 228°
2026-05-07 17:01 36.32150 -81.04345 35940 ft 364 kts 228°
2026-05-07 17:01 36.28253 -81.08364 35938 ft 364 kts 228°
2026-05-07 17:02 36.24359 -81.12374 35928 ft 364 kts 228°
2026-05-07 17:02 36.20461 -81.16382 35932 ft 364 kts 228°
2026-05-07 17:03 36.16562 -81.20388 35940 ft 364 kts 228°
2026-05-07 17:03 36.12654 -81.24395 35933 ft 365 kts 228°
2026-05-07 17:04 36.08751 -81.28394 35930 ft 365 kts 228°
2026-05-07 17:04 36.04865 -81.32368 35917 ft 365 kts 228°
2026-05-07 17:05 36.00953 -81.36373 35923 ft 365 kts 228°
2026-05-07 17:05 35.96876 -81.40176 35915 ft 374 kts 221°
2026-05-07 17:06 35.92136 -81.43084 35931 ft 384 kts 216°
2026-05-07 17:06 35.87256 -81.45811 35915 ft 385 kts 216°
2026-05-07 17:07 35.82362 -81.48554 35900 ft 386 kts 216°
2026-05-07 17:07 35.77497 -81.51290 35894 ft 386 kts 216°
2026-05-07 17:08 35.72607 -81.54043 35902 ft 386 kts 216°
2026-05-07 17:08 35.67726 -81.56787 35902 ft 386 kts 216°
2026-05-07 17:09 35.62846 -81.59530 35895 ft 385 kts 216°
2026-05-07 17:09 35.57972 -81.62266 35894 ft 385 kts 216°
2026-05-07 17:10 35.53090 -81.65001 35907 ft 386 kts 215°
2026-05-07 17:10 35.48217 -81.67741 35910 ft 385 kts 215°
2026-05-07 17:11 35.43331 -81.70456 35894 ft 385 kts 215°
2026-05-07 17:11 35.38454 -81.73160 35892 ft 385 kts 215°
2026-05-07 17:12 35.33561 -81.75905 35896 ft 387 kts 215°
2026-05-07 17:12 35.28649 -81.78646 35901 ft 389 kts 215°
2026-05-07 17:13 35.23706 -81.81396 35894 ft 391 kts 215°
2026-05-07 17:13 35.18744 -81.84148 35891 ft 392 kts 215°
2026-05-07 17:14 35.13773 -81.86904 35907 ft 393 kts 215°
2026-05-07 17:14 35.08779 -81.89668 35896 ft 394 kts 214°
2026-05-07 17:15 35.03600 -81.92077 35903 ft 408 kts 205°
2026-05-07 17:15 34.97871 -81.93009 35905 ft 428 kts 194°
2026-05-07 17:16 34.91903 -81.93214 35904 ft 430 kts 194°
2026-05-07 17:16 34.85921 -81.93406 35900 ft 430 kts 194°
2026-05-07 17:17 34.79941 -81.93621 35909 ft 430 kts 194°
2026-05-07 17:17 34.73963 -81.93851 35907 ft 430 kts 193°
2026-05-07 17:18 34.67981 -81.94084 35918 ft 429 kts 194°
2026-05-07 17:18 34.61998 -81.94318 35912 ft 429 kts 193°
2026-05-07 17:19 34.56023 -81.94552 35909 ft 430 kts 193°
2026-05-07 17:19 34.50066 -81.94785 35902 ft 432 kts 193°
2026-05-07 17:20 34.44057 -81.95021 35897 ft 432 kts 193°
2026-05-07 17:20 34.38035 -81.95256 35898 ft 433 kts 193°
2026-05-07 17:21 34.31999 -81.95490 35916 ft 434 kts 193°
2026-05-07 17:21 34.25953 -81.95727 35911 ft 435 kts 193°
2026-05-07 17:22 34.19887 -81.95960 35908 ft 436 kts 193°
2026-05-07 17:22 34.13818 -81.96193 35908 ft 437 kts 192°
2026-05-07 17:23 34.07738 -81.96427 35917 ft 437 kts 193°
2026-05-07 17:23 34.01655 -81.96662 35916 ft 437 kts 193°
2026-05-07 17:24 33.95581 -81.96894 35925 ft 437 kts 193°
2026-05-07 17:24 33.89513 -81.97127 35927 ft 436 kts 193°
2026-05-07 17:25 33.83437 -81.97361 35925 ft 436 kts 193°
2026-05-07 17:25 33.77374 -81.97593 35921 ft 435 kts 193°
2026-05-07 17:26 33.71316 -81.97825 35925 ft 435 kts 193°
2026-05-07 17:26 33.65302 -81.98055 35926 ft 434 kts 193°
2026-05-07 17:27 33.59254 -81.98290 35912 ft 435 kts 192°
2026-05-07 17:27 33.53188 -81.98520 35922 ft 436 kts 192°
2026-05-07 17:28 33.47121 -81.98750 35928 ft 437 kts 192°
2026-05-07 17:28 33.41039 -81.98981 35926 ft 437 kts 192°
2026-05-07 17:29 33.34948 -81.99213 35914 ft 439 kts 192°
2026-05-07 17:29 33.28835 -81.99445 35920 ft 440 kts 192°
2026-05-07 17:30 33.22716 -81.99677 35909 ft 442 kts 192°
2026-05-07 17:30 33.16564 -81.99910 35917 ft 444 kts 192°
2026-05-07 17:31 33.10376 -82.00144 35932 ft 445 kts 192°
2026-05-07 17:31 33.04180 -82.00377 35928 ft 446 kts 191°
2026-05-07 17:32 32.97973 -82.00610 35924 ft 447 kts 191°
2026-05-07 17:32 32.92804 -82.00803 35921 ft 447 kts 191°
2026-05-07 17:33 32.85533 -82.01076 35921 ft 448 kts 191°
2026-05-07 17:33 32.79299 -82.01310 35930 ft 448 kts 191°
2026-05-07 17:34 32.73060 -82.01543 35923 ft 449 kts 191°
2026-05-07 17:34 32.66811 -82.01776 35930 ft 450 kts 191°
2026-05-07 17:35 32.61607 -82.01970 35926 ft 451 kts 190°
2026-05-07 17:35 32.55325 -82.02207 35929 ft 452 kts 190°
2026-05-07 17:36 32.49016 -82.02442 35936 ft 454 kts 190°
2026-05-07 17:36 32.42694 -82.02679 35950 ft 455 kts 190°
2026-05-07 17:37 32.36342 -82.02912 35952 ft 457 kts 190°
2026-05-07 17:37 32.29971 -82.03148 35958 ft 459 kts 190°
2026-05-07 17:38 32.23578 -82.03384 35949 ft 460 kts 190°
2026-05-07 17:38 32.17179 -82.03621 35957 ft 461 kts 189°
2026-05-07 17:39 32.10813 -82.03854 35954 ft 460 kts 189°
2026-05-07 17:39 32.04409 -82.04089 35961 ft 460 kts 189°
2026-05-07 17:40 31.98001 -82.04326 35969 ft 460 kts 189°
2026-05-07 17:40 31.91605 -82.04559 35970 ft 459 kts 189°
2026-05-07 17:41 31.85218 -82.04795 35972 ft 458 kts 189°
2026-05-07 17:41 31.78841 -82.05029 35978 ft 458 kts 189°
2026-05-07 17:42 31.72479 -82.05261 35980 ft 457 kts 189°
2026-05-07 17:42 31.66121 -82.05494 35988 ft 457 kts 189°
2026-05-07 17:43 31.59767 -82.05729 35989 ft 457 kts 190°
2026-05-07 17:43 31.53449 -82.05956 35989 ft 457 kts 189°
2026-05-07 17:44 31.47086 -82.06188 36004 ft 457 kts 189°
2026-05-07 17:44 31.40721 -82.06420 35999 ft 458 kts 189°
2026-05-07 17:45 31.34333 -82.06653 36002 ft 459 kts 189°
2026-05-07 17:45 31.27934 -82.06885 36000 ft 460 kts 189°
2026-05-07 17:46 31.21529 -82.07116 36006 ft 460 kts 189°
2026-05-07 17:46 31.15161 -82.07347 36009 ft 461 kts 189°
2026-05-07 17:47 31.08762 -82.07579 36017 ft 461 kts 189°
2026-05-07 17:47 31.02346 -82.07808 36026 ft 461 kts 189°
2026-05-07 17:48 30.95920 -82.08041 36023 ft 462 kts 189°
2026-05-07 17:48 30.89494 -82.08272 36030 ft 462 kts 189°